Weather History for Nagpur Sonegaon, India

Change the Weather History Date:

Tuesday, April 30, 2013

  Actual Average Record
Temperature  
Mean Temperature 96 °F -  
Max Temperature 114 °F 108 °F - ()
Min Temperature 79 °F 82 °F - ()
Cooling Degree Days 32    
Growing Degree Days 46 (Base 50)    
Moisture  
Dew Point 53 °F    
Average Humidity 19    
Maximum Humidity 40    
Minimum Humidity 8    
Precipitation  
Precipitation 0.00 in 0.02 in - ()
Sea Level Pressure  
Sea Level Pressure 29.69 in    
Wind  
Wind Speed 2 mph ()    
Max Wind Speed 10 mph    
Max Gust Speed -    
Visibility 3.2 miles    
Events      
T = Trace of Precipitation, MM = Missing Value Source: Averaged Metar Reports

Daily Weather History Graph

Daily Weather History Graph

Search for Another Location

Airport:

Trip Planner

Search our weather history database for the weather conditions in past years. The results will help you decide how hot, cold, wet, or windy it might be!

Date:

Astronomy

Apr. 30, 2013 Rise Set
Actual Time 5:43 AM IST 6:38 PM IST
Civil Twilight 5:20 AM IST 7:01 PM IST
Nautical Twilight 4:53 AM IST 7:28 PM IST
Astronomical Twilight 4:25 AM IST 7:56 PM IST
Moon 11:21 PM IST (4/30) 9:50 AM IST (4/30)
Length of Visible Light 13h 40m
Length of Day
12h 54m
Waning Gibbous, 74% of the Moon is Illuminated
Apr 30
Waning Gibbous
May 2
Last Quarter
May 10
New
May 18
First Quarter
May 25
Full

Hourly Weather History & Observations

Time (IST) Temp. Heat Index Dew Point Humidity Pressure Visibility Wind Dir Wind Speed Gust Speed Precip Events Conditions
12:10 AM 96.8 °F - 51.8 °F 22% 29.71 in 3.1 mi Calm Calm - N/A   Haze
1:10 AM 93.2 °F 91.3 °F 55.4 °F 28% 29.68 in 3.1 mi Calm Calm - N/A   Haze
2:10 AM 93.2 °F 91.3 °F 55.4 °F 28% 29.68 in 3.1 mi Calm Calm - N/A   Haze
2:30 AM 85 °F - 61 °F 34% 29.61 in 2 mi North 2.3 mph - -   Haze
3:10 AM 91.4 °F 89.4 °F 55.4 °F 29% 29.65 in 3.1 mi WNW 2.3 mph - N/A   Haze
5:30 AM 81 °F - 61 °F 40% 29.66 in 2 mi Calm Calm - -   Haze
5:40 AM 87.8 °F 86.5 °F 57.2 °F 35% 29.71 in 3.1 mi Calm Calm - N/A   Haze
6:10 AM 87.8 °F 85.7 °F 53.6 °F 31% 29.71 in 3.1 mi NE 2.3 mph - N/A   Haze
6:40 AM 87.8 °F 85.7 °F 53.6 °F 31% 29.71 in 3.1 mi Calm Calm - N/A   Haze
7:10 AM 91.4 °F 89.4 °F 55.4 °F 29% 29.74 in 3.1 mi Calm Calm - N/A   Haze
8:10 AM 95.0 °F 93.7 °F 57.2 °F 28% 29.77 in 3.1 mi NW 2.3 mph - N/A   Haze
8:30 AM 93 °F - 60 °F 23% 29.71 in 2 mi ESE 3.5 mph - -   Scattered Clouds
9:10 AM 102.2 °F 101.4 °F 57.2 °F 22% 29.80 in 3.7 mi ESE 2.3 mph - N/A   Partly Cloudy
10:10 AM 104.0 °F 103.4 °F 57.2 °F 21% 29.80 in 3.7 mi Calm Calm - N/A   Unknown
11:10 AM 107.6 °F 107.5 °F 57.2 °F 19% 29.77 in 3.7 mi East 2.3 mph - N/A   Unknown
11:30 AM 107 °F - 55 °F 11% 29.67 in 2 mi North 3.5 mph - -  
12:10 PM 113.0 °F - 51.8 °F 13% 29.74 in 3.7 mi ENE 2.3 mph - N/A   Unknown
1:40 PM 118.4 °F - 51.8 °F 11% 29.68 in 3.7 mi NNW 6.9 mph - N/A   Unknown
2:10 PM 118.4 °F - 50.0 °F 11% 29.68 in 3.7 mi NNW 10.4 mph - N/A   Partly Cloudy
2:30 PM 112 °F - 53 °F 8% 29.56 in 2 mi NNW 9.2 mph - -   Scattered Clouds
2:40 PM 118.4 °F - 50.0 °F 11% 29.68 in 3.7 mi NNW 8.1 mph - N/A   Partly Cloudy
3:10 PM 118.4 °F - 50.0 °F 11% 29.65 in 3.7 mi NNW 6.9 mph - N/A   Partly Cloudy
3:40 PM 118.4 °F - 48.2 °F 10% 29.65 in 3.7 mi Calm Calm - N/A   Partly Cloudy
4:10 PM 118.4 °F - 46.4 °F 9% 29.62 in 3.7 mi WNW 5.8 mph - N/A   Scattered Clouds
4:40 PM 118.4 °F - 46.4 °F 9% 29.62 in 3.7 mi West 5.8 mph - N/A   Scattered Clouds
5:10 PM 118.4 °F - 46.4 °F 9% 29.62 in 3.7 mi WNW 5.8 mph - N/A   Scattered Clouds
5:30 PM 110 °F - 53 °F 9% 29.53 in 2 mi NW 6.9 mph - -   Partly Cloudy
6:10 PM 114.8 °F - 48.2 °F 11% 29.65 in 3.7 mi WNW 5.8 mph - N/A   Scattered Clouds
6:40 PM 113.0 °F - 48.2 °F 12% 29.65 in 3.7 mi Calm Calm - N/A   Scattered Clouds
7:10 PM 109.4 °F - 48.2 °F 13% 29.68 in 3.7 mi WNW 2.3 mph - N/A   Scattered Clouds
7:40 PM 107.6 °F - 46.4 °F 13% 29.68 in 3.7 mi Calm Calm - N/A   Partly Cloudy
8:10 PM 105.8 °F - 48.2 °F 14% 29.68 in 3.7 mi SSW 2.3 mph - N/A   Partly Cloudy
8:30 PM 94 °F - 57 °F 20% 29.65 in 2 mi ESE 3.5 mph - -   Scattered Clouds
8:40 PM 104.0 °F - 48.2 °F 15% 29.71 in 3.7 mi SE 2.3 mph - N/A   Partly Cloudy
9:10 PM 104.0 °F - 50.0 °F 16% 29.71 in 3.7 mi Calm Calm - N/A   Partly Cloudy
9:40 PM 104.0 °F 102.3 °F 53.6 °F 19% 29.74 in 3.7 mi SE 3.5 mph - N/A   Scattered Clouds
10:10 PM 104.0 °F 102.3 °F 53.6 °F 19% 29.74 in 3.7 mi NNW 4.6 mph - N/A   Scattered Clouds
10:40 PM 102.2 °F 100.9 °F 55.4 °F 21% 29.74 in 3.7 mi Calm Calm - N/A   Scattered Clouds
11:10 PM 100.4 °F - 51.8 °F 20% 29.74 in 3.7 mi NNW 2.3 mph - N/A   Partly Cloudy
11:30 PM 92 °F - 62 °F 27% 29.65 in 2 mi Calm Calm - -   Scattered Clouds